Location: Killam
(52.7910°N, 111.8608°W)
Time: 15:52:52
(UTC+00:00)

Injun/Solrad 3 - Pass Details

Date: 23 February 2026
Orbit: 872 x 984 km, 66.8° (Epoch: 7 March)

Event Time Altitude Azimuth Distance (km) Brightness Sun altitude
Rises 01:50:42 0° 320° (NW) 3,564 11.5 -9.3°
Reaches altitude 10° 01:53:11 10° 319° (NW) 2,635 10.8 -9.7°
Maximum altitude 01:59:21 84° 233° (SW) 958 8.0 -10.6°
Drops below altitude 10° 02:05:39 10° 146° (SSE) 2,696 10.0 -11.6°
Sets 02:08:14 0° 146° (SE) 3,652 10.7 -12.0°
